1597528854,2020-08-16 00:00,470.00,-28
1597528914,2020-08-16 00:01,466.00,-27
1597528974,2020-08-16 00:02,467.00,-28
1597529034,2020-08-16 00:03,469.00,-29
1597529094,2020-08-16 00:04,474.00,-29
1597529154,2020-08-16 00:05,478.00,-27
1597529215,2020-08-16 00:06,475.00,-30
1597529275,2020-08-16 00:07,475.00,-29
1597529335,2020-08-16 00:08,477.00,-29
1597529395,2020-08-16 00:09,476.00,-29
1597529455,2020-08-16 00:10,481.00,-30
1597529515,2020-08-16 00:11,479.00,-29
1597529575,2020-08-16 00:12,481.00,-28
1597529635,2020-08-16 00:13,481.00,-27
1597529695,2020-08-16 00:14,479.00,-29
1597529755,2020-08-16 00:15,478.00,-27
1597529815,2020-08-16 00:16,481.00,-28
1597529875,2020-08-16 00:17,481.00,-27
1597529935,2020-08-16 00:18,476.00,-31
1597529996,2020-08-16 00:19,484.00,-33
1597530056,2020-08-16 00:20,481.00,-31
1597530116,2020-08-16 00:21,483.00,-29
1597530176,2020-08-16 00:22,483.00,-28
1597530236,2020-08-16 00:23,484.00,-29
1597530296,2020-08-16 00:24,471.00,-30
1597530356,2020-08-16 00:25,467.00,-31
1597530416,2020-08-16 00:26,470.00,-32
1597530476,2020-08-16 00:27,472.00,-30
1597530536,2020-08-16 00:28,475.00,-29
1597530596,2020-08-16 00:29,475.00,-29
1597530656,2020-08-16 00:30,476.00,-29
1597530716,2020-08-16 00:31,479.00,-37
1597530776,2020-08-16 00:32,479.00,-36
1597530836,2020-08-16 00:33,465.00,-36
1597530896,2020-08-16 00:34,472.00,-33
1597530956,2020-08-16 00:35,473.00,-29
1597531016,2020-08-16 00:36,478.00,-28
1597531077,2020-08-16 00:37,482.00,-29
1597531137,2020-08-16 00:38,483.00,-30
1597531197,2020-08-16 00:39,484.00,-32
1597531257,2020-08-16 00:40,486.00,-30
1597531317,2020-08-16 00:41,490.00,-29
1597531377,2020-08-16 00:42,482.00,-29
1597531437,2020-08-16 00:43,479.00,-29
1597531497,2020-08-16 00:44,477.00,-30
1597531557,2020-08-16 00:45,476.00,-31
1597531617,2020-08-16 00:46,470.00,-30
1597531677,2020-08-16 00:47,476.00,-29
1597531737,2020-08-16 00:48,475.00,-29
1597531797,2020-08-16 00:49,476.00,-30
1597531857,2020-08-16 00:50,474.00,-28
1597531917,2020-08-16 00:51,477.00,-30
1597531978,2020-08-16 00:52,471.00,-29
1597532038,2020-08-16 00:53,471.00,-28
1597532098,2020-08-16 00:54,475.00,-29
1597532158,2020-08-16 00:55,480.00,-30
1597532218,2020-08-16 00:56,485.00,-29
1597532278,2020-08-16 00:57,481.00,-29
1597532338,2020-08-16 00:58,484.00,-28
1597532398,2020-08-16 00:59,479.00,-28
1597532458,2020-08-16 01:00,484.00,-31
1597532518,2020-08-16 01:01,485.00,-32
1597532578,2020-08-16 01:02,489.00,-29
1597532638,2020-08-16 01:03,485.00,-28
1597532698,2020-08-16 01:04,489.00,-29
1597532758,2020-08-16 01:05,486.00,-31
1597532819,2020-08-16 01:06,488.00,-30
1597532879,2020-08-16 01:07,485.00,-28
1597532939,2020-08-16 01:08,482.00,-28
1597532999,2020-08-16 01:09,484.00,-30
1597533059,2020-08-16 01:10,482.00,-29
1597533119,2020-08-16 01:11,480.00,-30
1597533179,2020-08-16 01:12,479.00,-30
1597533239,2020-08-16 01:13,480.00,-29
1597533299,2020-08-16 01:14,477.00,-29
1597533422,2020-08-16 01:17,479.00,-28
1597533482,2020-08-16 01:18,478.00,-31
1597533542,2020-08-16 01:19,475.00,-29
1597533602,2020-08-16 01:20,478.00,-29
1597533662,2020-08-16 01:21,486.00,-31
1597533722,2020-08-16 01:22,487.00,-29
1597533782,2020-08-16 01:23,485.00,-29
1597533842,2020-08-16 01:24,481.00,-32
1597533902,2020-08-16 01:25,478.00,-30
1597533963,2020-08-16 01:26,476.00,-29
1597534023,2020-08-16 01:27,477.00,-29
1597534083,2020-08-16 01:28,478.00,-29
1597534143,2020-08-16 01:29,479.00,-29
1597534203,2020-08-16 01:30,473.00,-29
1597534263,2020-08-16 01:31,473.00,-28
1597534323,2020-08-16 01:32,475.00,-30
1597534383,2020-08-16 01:33,475.00,-32
1597534443,2020-08-16 01:34,475.00,-30
1597534503,2020-08-16 01:35,483.00,-31
1597534563,2020-08-16 01:36,483.00,-29
1597534623,2020-08-16 01:37,484.00,-29
1597534683,2020-08-16 01:38,478.00,-29
1597534743,2020-08-16 01:39,475.00,-30
1597534803,2020-08-16 01:40,479.00,-29
1597534863,2020-08-16 01:41,485.00,-30
1597534923,2020-08-16 01:42,489.00,-30
1597534983,2020-08-16 01:43,489.00,-29
1597535043,2020-08-16 01:44,491.00,-32
1597535104,2020-08-16 01:45,487.00,-31
1597535164,2020-08-16 01:46,489.00,-31
1597535224,2020-08-16 01:47,485.00,-30
1597535284,2020-08-16 01:48,483.00,-32
1597535344,2020-08-16 01:49,487.00,-30
1597535404,2020-08-16 01:50,493.00,-32
1597535464,2020-08-16 01:51,492.00,-31
1597535524,2020-08-16 01:52,491.00,-30
1597535584,2020-08-16 01:53,489.00,-30
1597535644,2020-08-16 01:54,489.00,-32
1597535704,2020-08-16 01:55,482.00,-28
1597535764,2020-08-16 01:56,483.00,-31
1597535824,2020-08-16 01:57,485.00,-31
1597535884,2020-08-16 01:58,483.00,-29
1597535944,2020-08-16 01:59,466.00,-29
1597536004,2020-08-16 02:00,457.00,-28
1597536064,2020-08-16 02:01,465.00,-29
1597536124,2020-08-16 02:02,469.00,-31
1597536184,2020-08-16 02:03,472.00,-30
1597536244,2020-08-16 02:04,471.00,-29
1597536305,2020-08-16 02:05,472.00,-29
1597536365,2020-08-16 02:06,470.00,-30
1597536425,2020-08-16 02:07,471.00,-29
1597536485,2020-08-16 02:08,471.00,-28
1597536545,2020-08-16 02:09,467.00,-31
1597536605,2020-08-16 02:10,468.00,-31
1597536665,2020-08-16 02:11,467.00,-30
1597536725,2020-08-16 02:12,463.00,-30
1597536785,2020-08-16 02:13,467.00,-30
1597536845,2020-08-16 02:14,464.00,-34
1597536905,2020-08-16 02:15,465.00,-33
1597536966,2020-08-16 02:16,465.00,-35
1597537026,2020-08-16 02:17,463.00,-31
1597537086,2020-08-16 02:18,458.00,-29
1597537146,2020-08-16 02:19,457.00,-32
1597537206,2020-08-16 02:20,459.00,-31
1597537266,2020-08-16 02:21,456.00,-31
1597537326,2020-08-16 02:22,452.00,-32
1597537386,2020-08-16 02:23,452.00,-29
1597537446,2020-08-16 02:24,451.00,-29
1597537506,2020-08-16 02:25,449.00,-34
1597537566,2020-08-16 02:26,453.00,-34
1597537626,2020-08-16 02:27,454.00,-29
1597537686,2020-08-16 02:28,457.00,-29
1597537747,2020-08-16 02:29,463.00,-32
1597537807,2020-08-16 02:30,462.00,-29
1597537867,2020-08-16 02:31,468.00,-29
1597537927,2020-08-16 02:32,467.00,-29
1597537987,2020-08-16 02:33,472.00,-31
1597538047,2020-08-16 02:34,474.00,-29
1597538107,2020-08-16 02:35,475.00,-29
1597538167,2020-08-16 02:36,474.00,-29
1597538227,2020-08-16 02:37,477.00,-28
1597538287,2020-08-16 02:38,476.00,-28
1597538347,2020-08-16 02:39,469.00,-28
1597538407,2020-08-16 02:40,470.00,-30
1597538467,2020-08-16 02:41,472.00,-29
1597538527,2020-08-16 02:42,471.00,-30
1597538587,2020-08-16 02:43,471.00,-28
1597538647,2020-08-16 02:44,466.00,-29
1597538707,2020-08-16 02:45,462.00,-28
1597538767,2020-08-16 02:46,461.00,-29
1597538827,2020-08-16 02:47,463.00,-29
1597538887,2020-08-16 02:48,458.00,-28
1597538947,2020-08-16 02:49,459.00,-29
1597539007,2020-08-16 02:50,455.00,-28
1597539067,2020-08-16 02:51,454.00,-29
1597539127,2020-08-16 02:52,454.00,-28
1597539187,2020-08-16 02:53,449.00,-30
1597539247,2020-08-16 02:54,449.00,-28
1597539307,2020-08-16 02:55,454.00,-31
1597539368,2020-08-16 02:56,454.00,-28
1597539428,2020-08-16 02:57,453.00,-28
1597539488,2020-08-16 02:58,457.00,-30
1597539548,2020-08-16 02:59,454.00,-28
1597539608,2020-08-16 03:00,455.00,-30
1597539668,2020-08-16 03:01,455.00,-30
1597539728,2020-08-16 03:02,454.00,-29
1597539788,2020-08-16 03:03,449.00,-28
1597539848,2020-08-16 03:04,449.00,-31
1597539908,2020-08-16 03:05,451.00,-30
1597539968,2020-08-16 03:06,453.00,-29
1597540028,2020-08-16 03:07,454.00,-29
1597540088,2020-08-16 03:08,453.00,-28
1597540148,2020-08-16 03:09,451.00,-29
1597540208,2020-08-16 03:10,451.00,-29
1597540268,2020-08-16 03:11,451.00,-31
1597540328,2020-08-16 03:12,453.00,-30
1597540388,2020-08-16 03:13,452.00,-29
1597540448,2020-08-16 03:14,456.00,-33
1597540508,2020-08-16 03:15,453.00,-30
1597540568,2020-08-16 03:16,452.00,-30
1597540628,2020-08-16 03:17,454.00,-29
1597540689,2020-08-16 03:18,451.00,-28
1597540749,2020-08-16 03:19,451.00,-30
1597540809,2020-08-16 03:20,451.00,-30
1597540869,2020-08-16 03:21,451.00,-29
1597540929,2020-08-16 03:22,453.00,-29
1597540989,2020-08-16 03:23,455.00,-30
1597541049,2020-08-16 03:24,453.00,-30
1597541109,2020-08-16 03:25,451.00,-31
1597541169,2020-08-16 03:26,454.00,-30
1597541229,2020-08-16 03:27,458.00,-31
1597541289,2020-08-16 03:28,455.00,-32
1597541349,2020-08-16 03:29,457.00,-29
1597541409,2020-08-16 03:30,456.00,-29
1597541469,2020-08-16 03:31,458.00,-31
1597541529,2020-08-16 03:32,459.00,-29
1597541589,2020-08-16 03:33,462.00,-28
1597541649,2020-08-16 03:34,463.00,-30
1597541709,2020-08-16 03:35,462.00,-29
1597541769,2020-08-16 03:36,462.00,-30
1597541829,2020-08-16 03:37,461.00,-31
1597541889,2020-08-16 03:38,457.00,-29
1597541949,2020-08-16 03:39,460.00,-30
1597542010,2020-08-16 03:40,462.00,-28
1597542070,2020-08-16 03:41,458.00,-28
1597542130,2020-08-16 03:42,460.00,-29
1597542190,2020-08-16 03:43,457.00,-29
1597542250,2020-08-16 03:44,456.00,-30
1597542310,2020-08-16 03:45,456.00,-32
1597542370,2020-08-16 03:46,456.00,-30
1597542430,2020-08-16 03:47,458.00,-30
1597542490,2020-08-16 03:48,457.00,-29
1597542550,2020-08-16 03:49,456.00,-28
1597542610,2020-08-16 03:50,455.00,-30
1597542670,2020-08-16 03:51,451.00,-29
1597542730,2020-08-16 03:52,454.00,-29
1597542790,2020-08-16 03:53,452.00,-28
1597542850,2020-08-16 03:54,452.00,-28
1597542911,2020-08-16 03:55,452.00,-31
1597542971,2020-08-16 03:56,454.00,-30
1597543031,2020-08-16 03:57,456.00,-30
1597543091,2020-08-16 03:58,454.00,-29
1597543151,2020-08-16 03:59,458.00,-30
1597543211,2020-08-16 04:00,456.00,-30
1597543271,2020-08-16 04:01,457.00,-30
1597543331,2020-08-16 04:02,455.00,-29
1597543391,2020-08-16 04:03,455.00,-29
1597543451,2020-08-16 04:04,456.00,-30
1597543511,2020-08-16 04:05,457.00,-32
1597543571,2020-08-16 04:06,454.00,-31
1597543631,2020-08-16 04:07,454.00,-31
1597543691,2020-08-16 04:08,453.00,-28
1597543751,2020-08-16 04:09,450.00,-31
1597543811,2020-08-16 04:10,452.00,-29
1597543872,2020-08-16 04:11,457.00,-28
1597543932,2020-08-16 04:12,457.00,-31
1597543992,2020-08-16 04:13,458.00,-30
1597544052,2020-08-16 04:14,454.00,-30
1597544112,2020-08-16 04:15,452.00,-31
1597544172,2020-08-16 04:16,454.00,-30
1597544232,2020-08-16 04:17,456.00,-31
1597544292,2020-08-16 04:18,457.00,-30
1597544352,2020-08-16 04:19,458.00,-31
1597544413,2020-08-16 04:20,460.00,-31
1597544473,2020-08-16 04:21,459.00,-30
1597544533,2020-08-16 04:22,462.00,-29
1597544593,2020-08-16 04:23,462.00,-29
1597544653,2020-08-16 04:24,463.00,-29
1597544713,2020-08-16 04:25,456.00,-32
1597544773,2020-08-16 04:26,456.00,-30
1597544833,2020-08-16 04:27,462.00,-30
1597544893,2020-08-16 04:28,459.00,-29
1597544953,2020-08-16 04:29,459.00,-30
1597545013,2020-08-16 04:30,460.00,-30
1597545073,2020-08-16 04:31,456.00,-29
1597545133,2020-08-16 04:32,458.00,-31
1597545193,2020-08-16 04:33,463.00,-32
1597545253,2020-08-16 04:34,462.00,-30
1597545313,2020-08-16 04:35,464.00,-29
1597545373,2020-08-16 04:36,460.00,-31
1597545433,2020-08-16 04:37,461.00,-31
1597545493,2020-08-16 04:38,459.00,-29
1597545553,2020-08-16 04:39,456.00,-29
1597545613,2020-08-16 04:40,457.00,-28
1597545673,2020-08-16 04:41,458.00,-31
1597545733,2020-08-16 04:42,459.00,-28
1597545793,2020-08-16 04:43,459.00,-28
1597545853,2020-08-16 04:44,461.00,-29
1597545913,2020-08-16 04:45,460.00,-28
1597545973,2020-08-16 04:46,458.00,-29
1597546034,2020-08-16 04:47,457.00,-28
1597546094,2020-08-16 04:48,458.00,-28
1597546154,2020-08-16 04:49,460.00,-29
1597546214,2020-08-16 04:50,460.00,-28
1597546274,2020-08-16 04:51,460.00,-28
1597546334,2020-08-16 04:52,459.00,-30
1597546394,2020-08-16 04:53,459.00,-29
1597546454,2020-08-16 04:54,457.00,-28
1597546514,2020-08-16 04:55,459.00,-28
1597546574,2020-08-16 04:56,460.00,-30
1597546634,2020-08-16 04:57,462.00,-30
1597546694,2020-08-16 04:58,462.00,-28
1597546754,2020-08-16 04:59,463.00,-30
1597546814,2020-08-16 05:00,461.00,-25
1597546874,2020-08-16 05:01,461.00,-27
1597546934,2020-08-16 05:02,464.00,-27
1597546994,2020-08-16 05:03,462.00,-28
1597547054,2020-08-16 05:04,464.00,-28
1597547114,2020-08-16 05:05,466.00,-28
1597547174,2020-08-16 05:06,464.00,-29
1597547234,2020-08-16 05:07,464.00,-27
1597547294,2020-08-16 05:08,462.00,-27
1597547355,2020-08-16 05:09,465.00,-30
1597547415,2020-08-16 05:10,463.00,-28
1597547475,2020-08-16 05:11,469.00,-27
1597547535,2020-08-16 05:12,470.00,-30
1597547595,2020-08-16 05:13,477.00,-28
1597547655,2020-08-16 05:14,481.00,-29
1597547715,2020-08-16 05:15,480.00,-30
1597547775,2020-08-16 05:16,484.00,-26
1597547835,2020-08-16 05:17,483.00,-28
1597547895,2020-08-16 05:18,484.00,-30
1597547955,2020-08-16 05:19,484.00,-31
1597548015,2020-08-16 05:20,480.00,-31
1597548075,2020-08-16 05:21,470.00,-29
1597548135,2020-08-16 05:22,468.00,-29
1597548195,2020-08-16 05:23,466.00,-30
1597548255,2020-08-16 05:24,464.00,-31
1597548315,2020-08-16 05:25,464.00,-29
1597548375,2020-08-16 05:26,462.00,-31
1597548435,2020-08-16 05:27,464.00,-30
1597548495,2020-08-16 05:28,465.00,-31
1597548555,2020-08-16 05:29,461.00,-30
1597548615,2020-08-16 05:30,461.00,-30
1597548675,2020-08-16 05:31,462.00,-31
1597548735,2020-08-16 05:32,462.00,-29
1597548795,2020-08-16 05:33,463.00,-30
1597548856,2020-08-16 05:34,462.00,-29
1597548916,2020-08-16 05:35,461.00,-30
1597548976,2020-08-16 05:36,460.00,-29
1597549036,2020-08-16 05:37,460.00,-30
1597549096,2020-08-16 05:38,461.00,-30
1597549156,2020-08-16 05:39,461.00,-30
1597549216,2020-08-16 05:40,463.00,-29
1597549276,2020-08-16 05:41,458.00,-29
1597549336,2020-08-16 05:42,458.00,-29
1597549396,2020-08-16 05:43,458.00,-37
1597549456,2020-08-16 05:44,456.00,-38
1597549516,2020-08-16 05:45,456.00,-35
1597549576,2020-08-16 05:46,459.00,-30
1597549637,2020-08-16 05:47,463.00,-30
1597549697,2020-08-16 05:48,462.00,-30
1597549757,2020-08-16 05:49,466.00,-29
1597549817,2020-08-16 05:50,466.00,-30
1597549877,2020-08-16 05:51,464.00,-31
1597549937,2020-08-16 05:52,462.00,-30
1597549997,2020-08-16 05:53,464.00,-30
1597550057,2020-08-16 05:54,465.00,-29
1597550117,2020-08-16 05:55,465.00,-31
1597550177,2020-08-16 05:56,469.00,-29
1597550237,2020-08-16 05:57,471.00,-32
1597550297,2020-08-16 05:58,475.00,-30
1597550357,2020-08-16 05:59,476.00,-33
1597550417,2020-08-16 06:00,479.00,-30
1597550477,2020-08-16 06:01,473.00,-30
1597550537,2020-08-16 06:02,465.00,-31
1597550597,2020-08-16 06:03,465.00,-30
1597550657,2020-08-16 06:04,468.00,-30
1597550717,2020-08-16 06:05,470.00,-34
1597550777,2020-08-16 06:06,471.00,-29
1597550837,2020-08-16 06:07,473.00,-29
1597550897,2020-08-16 06:08,474.00,-30
1597550957,2020-08-16 06:09,466.00,-29
1597551017,2020-08-16 06:10,464.00,-30
1597551077,2020-08-16 06:11,460.00,-30
1597551137,2020-08-16 06:12,459.00,-33
1597551198,2020-08-16 06:13,461.00,-31
1597551258,2020-08-16 06:14,460.00,-29
1597551318,2020-08-16 06:15,460.00,-29
1597551378,2020-08-16 06:16,463.00,-29
1597551438,2020-08-16 06:17,457.00,-28
1597551498,2020-08-16 06:18,456.00,-28
1597551558,2020-08-16 06:19,455.00,-29
1597551618,2020-08-16 06:20,453.00,-29
1597551678,2020-08-16 06:21,453.00,-30
1597551738,2020-08-16 06:22,451.00,-30
1597551798,2020-08-16 06:23,455.00,-29
1597551858,2020-08-16 06:24,455.00,-30
1597551918,2020-08-16 06:25,452.00,-28
1597551978,2020-08-16 06:26,452.00,-31
1597552038,2020-08-16 06:27,451.00,-28
1597552098,2020-08-16 06:28,449.00,-30
1597552158,2020-08-16 06:29,449.00,-30
1597552218,2020-08-16 06:30,449.00,-29
1597552278,2020-08-16 06:31,451.00,-28
1597552338,2020-08-16 06:32,452.00,-30
1597552398,2020-08-16 06:33,455.00,-29
1597552458,2020-08-16 06:34,453.00,-29
1597552518,2020-08-16 06:35,454.00,-29
1597552578,2020-08-16 06:36,451.00,-29
1597552638,2020-08-16 06:37,450.00,-32
1597552699,2020-08-16 06:38,448.00,-30
1597552759,2020-08-16 06:39,448.00,-29
1597552819,2020-08-16 06:40,450.00,-29
1597552879,2020-08-16 06:41,456.00,-29
1597552939,2020-08-16 06:42,459.00,-29
1597552999,2020-08-16 06:43,458.00,-30
1597553059,2020-08-16 06:44,461.00,-31
1597553119,2020-08-16 06:45,464.00,-30
1597553179,2020-08-16 06:46,468.00,-29
1597553239,2020-08-16 06:47,464.00,-29
1597553299,2020-08-16 06:48,466.00,-31
1597553359,2020-08-16 06:49,465.00,-31
1597553419,2020-08-16 06:50,464.00,-29
1597553479,2020-08-16 06:51,463.00,-29
1597553539,2020-08-16 06:52,461.00,-29
1597553599,2020-08-16 06:53,458.00,-29
1597553659,2020-08-16 06:54,449.00,-28
1597553720,2020-08-16 06:55,450.00,-28
1597553780,2020-08-16 06:56,453.00,-31
1597553840,2020-08-16 06:57,452.00,-30
1597553900,2020-08-16 06:58,452.00,-30
1597553960,2020-08-16 06:59,453.00,-31
1597554020,2020-08-16 07:00,452.00,-27
1597554080,2020-08-16 07:01,452.00,-27
1597554140,2020-08-16 07:02,448.00,-30
1597554200,2020-08-16 07:03,448.00,-31
1597554260,2020-08-16 07:04,446.00,-29
1597554320,2020-08-16 07:05,449.00,-29
1597554380,2020-08-16 07:06,450.00,-29
1597554440,2020-08-16 07:07,448.00,-29
1597554500,2020-08-16 07:08,446.00,-29
1597554560,2020-08-16 07:09,444.00,-29
1597554621,2020-08-16 07:10,444.00,-29
1597554681,2020-08-16 07:11,447.00,-30
1597554741,2020-08-16 07:12,450.00,-29
1597554801,2020-08-16 07:13,447.00,-30
1597554861,2020-08-16 07:14,448.00,-30
1597554921,2020-08-16 07:15,443.00,-29
1597554981,2020-08-16 07:16,443.00,-32
1597555041,2020-08-16 07:17,443.00,-29
1597555101,2020-08-16 07:18,442.00,-29
1597555161,2020-08-16 07:19,444.00,-29
1597555221,2020-08-16 07:20,441.00,-30
1597555281,2020-08-16 07:21,441.00,-30
1597555341,2020-08-16 07:22,443.00,-29
1597555401,2020-08-16 07:23,441.00,-29
1597555461,2020-08-16 07:24,441.00,-31
1597555521,2020-08-16 07:25,441.00,-31
1597555581,2020-08-16 07:26,441.00,-29
1597555641,2020-08-16 07:27,441.00,-32
1597555701,2020-08-16 07:28,437.00,-31
1597555761,2020-08-16 07:29,441.00,-30
1597555821,2020-08-16 07:30,440.00,-26
1597555882,2020-08-16 07:31,441.00,-29
1597555942,2020-08-16 07:32,441.00,-30
1597556002,2020-08-16 07:33,436.00,-31
1597556062,2020-08-16 07:34,436.00,-30
1597556122,2020-08-16 07:35,434.00,-29
1597556182,2020-08-16 07:36,436.00,-31
1597556242,2020-08-16 07:37,436.00,-30
1597556302,2020-08-16 07:38,434.00,-29
1597556362,2020-08-16 07:39,434.00,-31
1597556422,2020-08-16 07:40,436.00,-33
1597556482,2020-08-16 07:41,433.00,-32
1597556542,2020-08-16 07:42,434.00,-30
1597556602,2020-08-16 07:43,433.00,-30
1597556663,2020-08-16 07:44,434.00,-30
1597556723,2020-08-16 07:45,432.00,-29
1597556783,2020-08-16 07:46,430.00,-29
1597556843,2020-08-16 07:47,431.00,-29
1597556903,2020-08-16 07:48,430.00,-29
1597556963,2020-08-16 07:49,429.00,-29
1597557023,2020-08-16 07:50,431.00,-29
1597557083,2020-08-16 07:51,432.00,-32
1597557143,2020-08-16 07:52,429.00,-29
1597557203,2020-08-16 07:53,428.00,-29
1597557263,2020-08-16 07:54,429.00,-32
1597557323,2020-08-16 07:55,428.00,-29
1597557383,2020-08-16 07:56,430.00,-30
1597557443,2020-08-16 07:57,434.00,-32
1597557503,2020-08-16 07:58,435.00,-30
1597557563,2020-08-16 07:59,437.00,-30
1597557623,2020-08-16 08:00,434.00,-29
1597557683,2020-08-16 08:01,435.00,-31
1597557743,2020-08-16 08:02,435.00,-32
1597557803,2020-08-16 08:03,434.00,-31
1597557863,2020-08-16 08:04,433.00,-29
1597557923,2020-08-16 08:05,432.00,-29
1597557984,2020-08-16 08:06,433.00,-31
1597558044,2020-08-16 08:07,434.00,-28
1597558104,2020-08-16 08:08,431.00,-33
1597558164,2020-08-16 08:09,429.00,-30
1597558224,2020-08-16 08:10,431.00,-31
1597558284,2020-08-16 08:11,432.00,-29
1597558344,2020-08-16 08:12,432.00,-29
1597558404,2020-08-16 08:13,433.00,-32
1597558464,2020-08-16 08:14,431.00,-31
1597558524,2020-08-16 08:15,430.00,-29
1597558584,2020-08-16 08:16,432.00,-29
1597558644,2020-08-16 08:17,427.00,-29
1597558704,2020-08-16 08:18,430.00,-29
1597558764,2020-08-16 08:19,431.00,-28
1597558824,2020-08-16 08:20,426.00,-28
1597558884,2020-08-16 08:21,426.00,-28
1597558944,2020-08-16 08:22,425.00,-29
1597559004,2020-08-16 08:23,426.00,-28
1597559065,2020-08-16 08:24,427.00,-30
1597559125,2020-08-16 08:25,426.00,-31
1597559185,2020-08-16 08:26,426.00,-30
1597559245,2020-08-16 08:27,424.00,-29
1597559305,2020-08-16 08:28,424.00,-30
1597559365,2020-08-16 08:29,425.00,-28
1597559425,2020-08-16 08:30,427.00,-29
1597559485,2020-08-16 08:31,423.00,-30
1597559545,2020-08-16 08:32,423.00,-32
1597559605,2020-08-16 08:33,422.00,-29
1597559665,2020-08-16 08:34,423.00,-30
1597559725,2020-08-16 08:35,422.00,-30
1597559785,2020-08-16 08:36,420.00,-29
1597559845,2020-08-16 08:37,422.00,-29
1597559905,2020-08-16 08:38,422.00,-30
1597559966,2020-08-16 08:39,422.00,-32
1597560026,2020-08-16 08:40,421.00,-30
1597560086,2020-08-16 08:41,421.00,-31
1597560146,2020-08-16 08:42,423.00,-31
1597560206,2020-08-16 08:43,421.00,-32
1597560266,2020-08-16 08:44,419.00,-29
1597560326,2020-08-16 08:45,419.00,-29
1597560386,2020-08-16 08:46,424.00,-31
1597560446,2020-08-16 08:47,422.00,-29
1597560506,2020-08-16 08:48,424.00,-29
1597560566,2020-08-16 08:49,423.00,-29
1597560626,2020-08-16 08:50,423.00,-29
1597560686,2020-08-16 08:51,422.00,-29
1597560746,2020-08-16 08:52,419.00,-28
1597560806,2020-08-16 08:53,417.00,-31
1597560867,2020-08-16 08:54,416.00,-28
1597560927,2020-08-16 08:55,418.00,-27
1597560987,2020-08-16 08:56,415.00,-34
1597561047,2020-08-16 08:57,420.00,-29
1597561107,2020-08-16 08:58,419.00,-28
1597561167,2020-08-16 08:59,417.00,-29
1597561227,2020-08-16 09:00,419.00,-30
1597561287,2020-08-16 09:01,418.00,-30
1597561347,2020-08-16 09:02,421.00,-30
1597561408,2020-08-16 09:03,419.00,-29
1597561468,2020-08-16 09:04,419.00,-31
1597561528,2020-08-16 09:05,417.00,-30
1597561588,2020-08-16 09:06,417.00,-31
1597561648,2020-08-16 09:07,415.00,-29
1597561708,2020-08-16 09:08,415.00,-31
1597561768,2020-08-16 09:09,415.00,-35
1597561828,2020-08-16 09:10,413.00,-29
1597561888,2020-08-16 09:11,416.00,-30
1597561948,2020-08-16 09:12,417.00,-29
1597562008,2020-08-16 09:13,414.00,-29
1597562068,2020-08-16 09:14,413.00,-29
1597562129,2020-08-16 09:15,413.00,-30
1597562189,2020-08-16 09:16,416.00,-27
1597562249,2020-08-16 09:17,415.00,-27
1597562309,2020-08-16 09:18,416.00,-31
1597562369,2020-08-16 09:19,416.00,-35
1597562429,2020-08-16 09:20,415.00,-31
1597562489,2020-08-16 09:21,415.00,-29
1597562549,2020-08-16 09:22,415.00,-29
1597562609,2020-08-16 09:23,419.00,-35
1597562669,2020-08-16 09:24,419.00,-29
1597562729,2020-08-16 09:25,415.00,-29
1597562789,2020-08-16 09:26,416.00,-30
1597562849,2020-08-16 09:27,414.00,-30
1597562909,2020-08-16 09:28,420.00,-34
1597562969,2020-08-16 09:29,415.00,-30
1597563029,2020-08-16 09:30,418.00,-30
1597563090,2020-08-16 09:31,417.00,-32
1597563150,2020-08-16 09:32,417.00,-32
1597563210,2020-08-16 09:33,419.00,-30
1597563270,2020-08-16 09:34,417.00,-31
1597563330,2020-08-16 09:35,418.00,-30
1597563390,2020-08-16 09:36,418.00,-29
1597563450,2020-08-16 09:37,416.00,-31
1597563510,2020-08-16 09:38,417.00,-30
1597563570,2020-08-16 09:39,416.00,-29
1597563630,2020-08-16 09:40,416.00,-32
1597563690,2020-08-16 09:41,413.00,-30
1597563750,2020-08-16 09:42,413.00,-31
1597563810,2020-08-16 09:43,412.00,-29
1597563870,2020-08-16 09:44,413.00,-33
1597563930,2020-08-16 09:45,411.00,-30
1597563991,2020-08-16 09:46,413.00,-30
1597564051,2020-08-16 09:47,413.00,-29
1597564111,2020-08-16 09:48,412.00,-29
1597564171,2020-08-16 09:49,411.00,-30
1597564231,2020-08-16 09:50,407.00,-29
1597564291,2020-08-16 09:51,410.00,-30
1597564351,2020-08-16 09:52,408.00,-29
1597564411,2020-08-16 09:53,409.00,-37
1597564471,2020-08-16 09:54,407.00,-31
1597564531,2020-08-16 09:55,407.00,-30
1597564591,2020-08-16 09:56,407.00,-30
1597564651,2020-08-16 09:57,408.00,-29
1597564711,2020-08-16 09:58,409.00,-34
1597564771,2020-08-16 09:59,408.00,-32
1597564831,2020-08-16 10:00,407.00,-30
1597564892,2020-08-16 10:01,406.00,-31
1597564952,2020-08-16 10:02,408.00,-31
1597565012,2020-08-16 10:03,406.00,-30
1597565072,2020-08-16 10:04,408.00,-33
1597565132,2020-08-16 10:05,406.00,-31
1597565192,2020-08-16 10:06,408.00,-32
1597565252,2020-08-16 10:07,406.00,-30
1597565312,2020-08-16 10:08,406.00,-31
1597565372,2020-08-16 10:09,407.00,-31
1597565432,2020-08-16 10:10,406.00,-28
1597565492,2020-08-16 10:11,405.00,-29
1597565552,2020-08-16 10:12,406.00,-31
1597565612,2020-08-16 10:13,407.00,-30
1597565673,2020-08-16 10:14,410.00,-34
1597565733,2020-08-16 10:15,419.00,-30
1597565793,2020-08-16 10:16,413.00,-34